User: anonymous   Login
Location: Caltech
(34.1382°N, 118.1253°W)
Time: 11:45:37
(UTC-08:00)
Language:

Cosmos 1733 Rocket - Orbit

View from above orbital plane
View from above orbital plane
View from above satellite
View from above satellite

Ground track
Ground track

The orbit data is extracted from the following two-line orbital elements,

1 16612U 86018B   17055.45318709  .00000133  00000-0  13031-4 0  9993
2 16612  82.5155  42.1948 0018176 160.4838 357.4606 14.84132800574733
Epoch (UTC): 24 February 2017 10:52:35
Eccentricity: 0.0018176
inclination: 82.5155°
perigee height: 603 km
apogee height: 629 km
right ascension of ascending node: 42.1948°
argument of perigee: 160.4838°
revolutions per day: 14.84132800
mean anomaly at epoch: 357.4606°
orbit number at epoch: 57473

The dashed part of the orbit path shows where the satellite is in the earth's shadow,  

DLR